Roswell, NM

10:07 PM MDT on June 24, 2017 (GMT -0600)
Roswell Industrial

Weather History for KROW - April, 2014

Change the Weather History Date:

Saturday, April 26, 2014

  Actual Average Record
Temperature  
Mean Temperature 73 °F 64 °F  
Max Temperature 89 °F 80 °F 98 °F (2012)
Min Temperature 57 °F 48 °F 33 °F (1961)
Degree Days  
Heating Degree Days 0 3  
Month to date heating degree days 126 152  
Since 1 July heating degree days 3210 3246  
Cooling Degree Days 8 2  
Month to date cooling degree days 44 27  
Year to date cooling degree days 45 30  
Growing Degree Days 23 (Base 50)    
Moisture  
Dew Point 16 °F    
Average Humidity 16    
Maximum Humidity 26    
Minimum Humidity 5    
Precipitation  
Precipitation 0.00 in 0.03 in 1.76 in (1941)
Month to date precipitation 0.11 0.50  
Year to date precipitation 0.41 1.81  
Sea Level Pressure  
Sea Level Pressure 29.46 in    
Wind  
Wind Speed 24 mph (SSW)    
Max Wind Speed 43 mph    
Max Gust Speed 52 mph    
Visibility 9 miles    
Events      
T = Trace of Precipitation, MM = Missing Value Source: NWS Daily Summary

Daily Weather History Graph

Daily Weather History Graph

Search for Another Location

Airport or City:

Trip Planner

Search our weather history database for the weather conditions in past years. The results will help you decide how hot, cold, wet, or windy it might be!

Date:

Astronomy

Apr. 26, 2014 Rise Set
Actual Time 6:15 AM MDT 7:37 PM MDT
Civil Twilight 5:49 AM MDT 8:03 PM MDT
Nautical Twilight 5:17 AM MDT 8:34 PM MDT
Astronomical Twilight 4:45 AM MDT 9:07 PM MDT
Moon 4:31 AM MDT (4/26) 5:15 PM MDT (4/26)
Length of Visible Light 14h 14m
Length of Day
13h 21m
Waning Crescent, 8% of the Moon is Illuminated
Apr 26
Waning Crescent
Apr 29
New
May 6
First Quarter
May 14
Full
May 21
Last Quarter

Hourly Weather History & Observations

Time (MDT) Temp. Dew Point Humidity Pressure Visibility Wind Dir Wind Speed Gust Speed Precip Events Conditions
12:51 AM 66.0 °F 16.0 °F 15% 29.57 in 10.0 mi WSW 11.5 mph - N/A   Clear
1:51 AM 69.1 °F 17.1 °F 14% 29.53 in 10.0 mi WSW 15.0 mph - N/A   Clear
2:51 AM 68.0 °F 17.1 °F 14% 29.53 in 10.0 mi South 8.1 mph - N/A   Clear
3:51 AM 62.1 °F 19.0 °F 19% 29.55 in 10.0 mi South 6.9 mph - N/A   Clear
4:51 AM 61.0 °F 18.0 °F 19% 29.55 in 10.0 mi South 5.8 mph - N/A   Clear
5:51 AM 59.0 °F 18.0 °F 20% 29.55 in 10.0 mi South 9.2 mph - N/A   Clear
6:51 AM 57.9 °F 18.0 °F 21% 29.57 in 10.0 mi South 8.1 mph - N/A   Clear
7:51 AM 64.0 °F 19.0 °F 18% 29.56 in 10.0 mi South 9.2 mph - N/A   Clear
8:47 AM 75.2 °F 17.6 °F 11% 29.72 in 10.0 mi SSW 23.0 mph 27.6 mph N/A   Clear
8:51 AM 75.9 °F 17.1 °F 11% 29.54 in 10.0 mi SSW 20.7 mph - N/A   Clear
10:51 AM 81.0 °F 18.0 °F 10% 29.51 in 10.0 mi SSW 31.1 mph 36.8 mph N/A   Clear
11:51 AM 84.0 °F 14.0 °F 7% 29.46 in 10.0 mi South 33.4 mph 44.9 mph N/A   Clear
12:51 PM 86.0 °F 12.9 °F 7% 29.43 in 10.0 mi South 35.7 mph 46.0 mph N/A   Clear
1:51 PM 89.1 °F 9.0 °F 5% 29.39 in 10.0 mi SSW 33.4 mph 46.0 mph N/A   Clear
3:51 PM 87.1 °F 9.0 °F 5% 29.34 in 10.0 mi SW 38.0 mph 51.8 mph N/A   Clear
4:51 PM 82.9 °F 10.9 °F 7% 29.34 in 10.0 mi SSW 29.9 mph 50.6 mph N/A   Clear
5:51 PM 84.0 °F 10.0 °F 6% 29.31 in 10.0 mi SW 35.7 mph 44.9 mph N/A   Clear
6:51 PM 81.0 °F 10.9 °F 7% 29.34 in 6.0 mi SW 34.5 mph 43.7 mph N/A   Haze
7:19 PM 80.1 °F 10.9 °F 7% 29.50 in 3.0 mi SW 27.6 mph 39.1 mph N/A   Haze
7:33 PM 79.0 °F 12.0 °F 8% 29.51 in 2.0 mi SW 26.5 mph 34.5 mph N/A   Haze
7:51 PM 79.0 °F 12.0 °F 8% 29.32 in 5.0 mi SW 32.2 mph 41.4 mph N/A   Widespread Dust
8:51 PM 78.1 °F 15.1 °F 9% 29.32 in 5.0 mi SW 27.6 mph 39.1 mph N/A   Widespread Dust
9:51 PM 77.0 °F 19.0 °F 11% 29.36 in 7.0 mi WSW 26.5 mph 36.8 mph N/A   Widespread Dust
11:51 PM 66.9 °F 30.9 °F 26% 29.43 in 10.0 mi West 26.5 mph - N/A   Widespread Dust